Weather History for Willimantic, CT

Change the Weather History Date:

Tuesday, November 20, 2012

  Actual Average Record
Temperature  
Mean Temperature 38 °F -  
Max Temperature 52 °F 48 °F 72 °F (1953)
Min Temperature 24 °F 27 °F 7 °F (1986)
Degree Days  
Heating Degree Days 27    
Moisture  
Dew Point 27 °F    
Average Humidity 71    
Maximum Humidity 86    
Minimum Humidity 43    
Precipitation  
Precipitation 0.00 in - - ()
Sea Level Pressure  
Sea Level Pressure 30.19 in    
Wind  
Wind Speed 1 mph (NE)    
Max Wind Speed 8 mph    
Max Gust Speed -    
Visibility 9 miles    
Events      
Averages and records for this station are not official NWS values.
T = Trace of Precipitation, MM = Missing Value Source: NWS Daily Summary

Daily Weather History Graph

Daily Weather History Graph

Search for Another Location

Airport:

Trip Planner

Search our weather history database for the weather conditions in past years. The results will help you decide how hot, cold, wet, or windy it might be!

Date:

Astronomy

Nov. 20, 2012 Rise Set
Actual Time 6:44 AM EST 4:24 PM EST
Civil Twilight 6:14 AM EST 4:54 PM EST
Nautical Twilight 5:40 AM EST 5:28 PM EST
Astronomical Twilight 5:07 AM EST 6:01 PM EST
Moon 12:14 PM EST (11/20) 11:56 PM EST (11/20)
Length of Visible Light 10h 40m
Length of Day
9h 39m
Waxing Crescent, 51% of the Moon is Illuminated
Nov 20
Waxing Crescent
Nov 28
Full
Dec 6
Last Quarter
Dec 13
New
Dec 20
First Quarter

Hourly Weather History & Observations

Time (EST) Temp. Windchill Dew Point Humidity Pressure Visibility Wind Dir Wind Speed Gust Speed Precip Events Conditions
12:25 AM 24.8 °F - 21.2 °F 86% 30.26 in 8.0 mi Calm Calm - N/A   Partly Cloudy
12:52 AM 28.0 °F - 23.0 °F 81% 30.26 in 7.0 mi Calm Calm - N/A   Clear
1:52 AM 26.1 °F - 21.0 °F 81% 30.26 in 6.0 mi Calm Calm - N/A   Haze
3:52 AM 25.0 °F - 19.9 °F 81% 30.22 in 9.0 mi Calm Calm - N/A   Clear
4:52 AM 24.1 °F - 19.0 °F 81% 30.21 in 8.0 mi Calm Calm - N/A   Clear
5:52 AM 24.1 °F - 18.0 °F 77% 30.21 in 9.0 mi Calm Calm - N/A   Clear
6:52 AM 25.0 °F - 19.9 °F 81% 30.22 in 8.0 mi Calm Calm - N/A   Clear
7:52 AM 28.0 °F - 23.0 °F 81% 30.23 in 8.0 mi Calm Calm - N/A   Clear
8:52 AM 33.1 °F - 28.0 °F 82% 30.21 in 9.0 mi Calm Calm - N/A   Clear
9:52 AM 39.9 °F - 33.1 °F 77% 30.20 in 10.0 mi Calm Calm - N/A   Clear
10:52 AM 48.0 °F - 34.0 °F 58% 30.18 in 10.0 mi NNE 3.5 mph - N/A   Clear
11:52 AM 50.0 °F - 28.9 °F 44% 30.15 in 10.0 mi NE 8.1 mph - N/A   Clear
12:52 PM 50.0 °F - 32.0 °F 50% 30.14 in 10.0 mi North 4.6 mph - N/A   Clear
1:52 PM 51.1 °F - 32.0 °F 48% 30.14 in 10.0 mi NNW 3.5 mph - N/A   Clear
2:52 PM 52.0 °F - 30.0 °F 43% 30.13 in 10.0 mi Calm Calm - N/A   Clear
3:52 PM 50.0 °F - 28.9 °F 44% 30.14 in 10.0 mi ENE 4.6 mph - N/A   Clear
4:52 PM 43.0 °F 41.3 °F 28.9 °F 58% 30.14 in 10.0 mi NE 3.5 mph - N/A   Clear
6:52 PM 37.0 °F - 28.0 °F 70% 30.15 in 10.0 mi Calm Calm - N/A   Clear
7:52 PM 37.0 °F - 28.9 °F 73% 30.16 in 10.0 mi Calm Calm - N/A   Clear
8:52 PM 35.1 °F - 28.9 °F 78% 30.17 in 10.0 mi Calm Calm - N/A   Clear
9:52 PM 33.1 °F - 28.9 °F 85% 30.17 in 10.0 mi Calm Calm - N/A   Clear
10:52 PM 33.1 °F - 28.0 °F 82% 30.17 in 10.0 mi Calm Calm - N/A   Clear
11:52 PM 32.0 °F 28.7 °F 28.0 °F 85% 30.18 in 10.0 mi ENE 3.5 mph - N/A   Clear